CW5619 Weather Reports


Display with metric or nautical units.
time (UTC)temp
F
wind
direction
speed
MPH
gust
MPH
rain 1hr
in
rain 24hr
in
rain mn
in
humidity
%
barometer
mb
20260831084903 87 65 0.0 0.0 0.00 0.00 0.00 46 1013.2
20260831084403 87 65 0.0 0.0 0.00 0.00 0.00 46 1013.2
20260831083903 87 65 0.0 0.0 0.00 0.00 0.00 46 1013.2
20260831083403 87 65 0.0 1.0 0.00 0.00 0.00 46 1013.3
20260831081903 87 65 0.0 0.0 0.00 0.00 0.00 48 1013.3
20260831081403 87 65 0.0 0.0 0.00 0.00 0.00 48 1013.3
20260831080903 87 65 0.0 2.0 0.00 0.00 0.00 49 1013.3
20260831080403 87 65 0.0 2.0 0.00 0.00 0.00 48 1013.4
20260831075903 88 336 0.0 0.0 0.00 0.00 0.00 46 1013.2
20260831074903 88 336 0.0 1.0 0.00 0.00 0.00 46 1013.4
20260831074403 88 336 0.0 1.0 0.00 0.00 0.00 45 1013.3
20260831073903 88 286 0.0 0.0 0.00 0.00 0.00 42 1013.3
20260831073403 89 286 0.0 1.0 0.00 0.00 0.00 42 1013.4
20260831072903 89 286 0.0 1.0 0.00 0.00 0.00 42 1013.4
20260831071904 89 292 0.0 1.0 0.00 0.00 0.00 42 1013.3
20260831070903 89 292 0.0 1.0 0.00 0.00 0.00 42 1013.4
20260831070403 89 292 0.0 2.0 0.00 0.00 0.00 42 1013.5
20260831065904 89 292 0.0 2.0 0.00 0.00 0.00 42 1013.5
20260831065403 89 331 0.0 1.0 0.00 0.00 0.00 42 1013.6
20260831064903 89 334 0.0 1.0 0.00 0.00 0.00 42 1013.6
20260831064403 89 333 0.0 1.0 0.00 0.00 0.00 42 1013.6
20260831063903 89 333 0.0 1.0 0.00 0.00 0.00 42 1013.7
20260831063403 89 333 0.0 1.0 0.00 0.00 0.00 42 1013.7
20260831062903 89 333 0.0 1.0 0.00 0.00 0.00 42 1013.6
20260831062403 89 333 0.0 1.0 0.00 0.00 0.00 41 1013.7
20260831061903 89 355 0.0 1.0 0.00 0.00 0.00 41 1013.7
20260831061403 89 18 0.0 0.0 0.00 0.00 0.00 41 1013.7
20260831060904 89 18 0.0 0.0 0.00 0.00 0.00 41 1013.6
20260831060404 89 18 0.0 0.0 0.00 0.00 0.00 41 1013.6
20260831055903 89 18 0.0 1.0 0.00 0.00 0.00 40 1013.6
20260831055403 90 18 0.0 1.0 0.00 0.00 0.00 40 1013.5
20260831054404 90 298 0.0 1.0 0.00 0.00 0.00 39 1013.4
20260831053903 90 298 0.0 1.0 0.00 0.00 0.00 39 1013.3
20260831053403 90 298 0.0 2.0 0.00 0.00 0.00 39 1013.4
20260831052903 90 242 1.0 3.0 0.00 0.00 0.00 39 1013.4
20260831052403 90 227 0.0 3.0 0.00 0.00 0.00 39 1013.3
20260831051903 90 338 1.0 3.0 0.00 0.00 0.00 38 1013.4
20260831051403 90 326 1.0 3.0 0.00 0.00 0.00 38 1013.3
20260831050903 90 11 0.0 3.0 0.00 0.00 0.00 38 1013.2
20260831050403 91 323 0.0 3.0 0.00 0.00 0.00 38 1013.1
20260831045904 91 291 0.0 3.0 0.00 0.00 0.00 37 1013.2
20260831045404 91 351 1.0 3.0 0.00 0.00 0.00 37 1013.1
20260831044903 91 350 1.0 3.0 0.00 0.00 0.00 37 1013.2
20260831044403 91 341 1.0 3.0 0.00 0.00 0.00 37 1013.2
20260831043903 91 336 1.0 3.0 0.00 0.00 0.00 37 1013.3
20260831043403 91 305 1.0 3.0 0.00 0.00 0.00 37 1013.4
20260831042904 91 12 0.0 3.0 0.00 0.00 0.00 37 1013.3
20260831041904 91 295 2.0 3.0 0.00 0.00 0.00 36 1013.3
20260831041403 92 301 1.0 3.0 0.00 0.00 0.00 36 1013.1
20260831040903 92 259 1.0 3.0 0.00 0.00 0.00 36 1013.0
20260831035903 92 244 2.0 8.0 0.00 0.00 0.00 36 1013.0
20260831035404 92 216 2.0 8.0 0.00 0.00 0.00 36 1013.0
20260831034904 92 227 2.0 6.0 0.00 0.00 0.00 36 1012.9
20260831034403 92 224 3.0 6.0 0.00 0.00 0.00 36 1012.9
20260831033403 92 230 1.0 6.0 0.00 0.00 0.00 35 1012.7
20260831032903 92 223 2.0 6.0 0.00 0.00 0.00 34 1012.6
20260831032404 93 271 0.0 3.0 0.00 0.00 0.00 34 1012.6
20260831031903 93 213 1.0 5.0 0.00 0.00 0.00 34 1012.4
20260831031403 93 276 1.0 5.0 0.00 0.00 0.00 33 1012.4
20260831030903 93 238 1.0 6.0 0.00 0.00 0.00 33 1012.4
20260831030403 93 234 2.0 6.0 0.00 0.00 0.00 33 1012.3
20260831025903 93 243 1.0 10.0 0.00 0.00 0.00 34 1012.3
20260831025403 93 225 3.0 10.0 0.00 0.00 0.00 34 1012.2
20260831024904 94 252 3.0 9.0 0.00 0.00 0.00 34 1012.0
20260831024404 94 232 3.0 9.0 0.00 0.00 0.00 34 1011.8
20260831023903 94 239 4.0 12.0 0.00 0.00 0.00 34 1011.7
20260831023404 94 234 5.0 12.0 0.00 0.00 0.00 34 1011.7
20260831022403 95 230 3.0 9.0 0.00 0.00 0.00 34 1011.4
20260831021904 95 224 5.0 9.0 0.00 0.00 0.00 34 1011.1
20260831021403 95 229 4.0 8.0 0.00 0.00 0.00 34 1011.0
20260831020903 95 251 3.0 7.0 0.00 0.00 0.00 34 1010.8
20260831020403 95 229 3.0 6.0 0.00 0.00 0.00 33 1010.7
20260831015403 96 231 3.0 9.0 0.00 0.00 0.00 33 1010.6
20260831014904 96 237 4.0 9.0 0.00 0.00 0.00 32 1010.6
20260831014403 96 239 1.0 5.0 0.00 0.00 0.00 32 1010.5
20260831013403 96 237 2.0 3.0 0.00 0.00 0.00 32 1010.4
20260831012903 96 241 1.0 3.0 0.00 0.00 0.00 32 1010.4
20260831011903 96 277 1.0 6.0 0.00 0.00 0.00 31 1010.4
20260831011403 96 240 3.0 6.0 0.00 0.00 0.00 31 1010.4
20260831010903 96 229 3.0 6.0 0.00 0.00 0.00 31 1010.3
20260831005903 97 157 0.0 6.0 0.00 0.00 0.00 31 1010.3
20260831005404 97 298 1.0 6.0 0.00 0.00 0.00 31 1010.3
20260831003904 97 243 0.0 8.0 0.00 0.00 0.00 30 1010.3
20260831003403 97 19 1.0 8.0 0.00 0.00 0.00 29 1010.3
20260831002903 97 242 3.0 8.0 0.00 0.00 0.00 29 1010.3
20260831002404 98 243 1.0 7.0 0.00 0.00 0.00 29 1010.4
20260831001904 98 200 1.0 7.0 0.00 0.00 0.00 29 1010.4
20260831001403 98 229 1.0 7.0 0.00 0.00 0.00 29 1010.3
20260831000903 98 210 1.0 7.0 0.00 0.00 0.00 29 1010.5
20260831000403 98 256 0.0 7.0 0.00 0.00 0.00 28 1010.4
20260830235903 98 243 3.0 7.0 0.00 0.00 0.00 29 1010.4
20260830235403 98 237 3.0 7.0 0.00 0.00 0.00 29 1010.4
20260830234903 98 71 3.0 8.0 0.00 0.00 0.00 29 1010.4
20260830234403 98 224 3.0 8.0 0.00 0.00 0.00 29 1010.3
20260830233903 98 240 3.0 7.0 0.00 0.00 0.00 29 1010.4
20260830233404 98 46 2.0 6.0 0.00 0.00 0.00 28 1010.3
20260830232904 98 214 1.0 6.0 0.00 0.00 0.00 29 1010.5
20260830232403 98 251 2.0 6.0 0.00 0.00 0.00 29 1010.6
20260830231904 98 236 3.0 7.0 0.00 0.00 0.00 29 1010.6
20260830231403 98 238 1.0 7.0 0.00 0.00 0.00 28 1010.6
20260830230903 98 263 1.0 3.0 0.00 0.00 0.00 28 1010.7
20260830230403 99 316 1.0 6.0 0.00 0.00 0.00 29 1010.9
20260830225903 99 162 2.0 7.0 0.00 0.00 0.00 29 1011.0
20260830223404 99 11 1.0 8.0 0.00 0.00 0.00 28 1011.4
20260830222903 99 190 1.0 8.0 0.00 0.00 0.00 29 1011.5
20260830222403 99 298 2.0 8.0 0.00 0.00 0.00 29 1011.6
20260830221903 99 227 3.0 9.0 0.00 0.00 0.00 29 1011.6
20260830221403 99 318 3.0 9.0 0.00 0.00 0.00 29 1011.7
20260830220904 99 233 2.0 8.0 0.00 0.00 0.00 30 1011.7
20260830220404 99 293 3.0 8.0 0.00 0.00 0.00 30 1011.8
20260830215904 99 222 3.0 8.0 0.00 0.00 0.00 29 1012.0
20260830215403 99 172 2.0 8.0 0.00 0.00 0.00 29 1012.0
20260830214903 99 259 3.0 8.0 0.00 0.00 0.00 30 1012.1
20260830214403 99 299 1.0 8.0 0.00 0.00 0.00 30 1012.2
20260830213903 99 287 3.0 8.0 0.00 0.00 0.00 30 1012.3
20260830213403 98 282 2.0 8.0 0.00 0.00 0.00 30 1012.3
20260830212904 98 231 1.0 6.0 0.00 0.00 0.00 30 1012.4
20260830211904 98 8 2.0 9.0 0.00 0.00 0.00 30 1012.6
20260830211403 98 296 2.0 9.0 0.00 0.00 0.00 30 1012.6
20260830210903 98 47 2.0 5.0 0.00 0.00 0.00 30 1012.7
20260830210403 98 116 1.0 7.0 0.00 0.00 0.00 30 1012.8
20260830205904 98 66 2.0 7.0 0.00 0.00 0.00 30 1012.9
20260830204903 98 235 2.0 8.0 0.00 0.00 0.00 30 1013.0
20260830203903 98 236 5.0 8.0 0.00 0.00 0.00 30 1013.3
20260830203403 98 203 2.0 6.0 0.00 0.00 0.00 31 1013.5
20260830202903 98 259 1.0 5.0 0.00 0.00 0.00 31 1013.5
20260830202403 97 27 2.0 5.0 0.00 0.00 0.00 31 1013.5
20260830201904 98 49 1.0 5.0 0.00 0.00 0.00 31 1013.7
20260830201403 97 222 2.0 5.0 0.00 0.00 0.00 31 1013.7
20260830200904 97 48 2.0 5.0 0.00 0.00 0.00 31 1013.7
20260830200404 97 171 2.0 5.0 0.00 0.00 0.00 32 1013.7
20260830195903 97 200 1.0 9.0 0.00 0.00 0.00 31 1013.9
20260830194903 97 226 3.0 8.0 0.00 0.00 0.00 31 1014.0
20260830194403 97 213 2.0 5.0 0.00 0.00 0.00 31 1014.1
20260830193903 97 224 1.0 7.0 0.00 0.00 0.00 32 1014.1
20260830193403 97 37 3.0 7.0 0.00 0.00 0.00 32 1014.3
20260830192903 97 37 2.0 7.0 0.00 0.00 0.00 32 1014.3
20260830191903 97 241 2.0 6.0 0.00 0.00 0.00 33 1014.4
20260830191404 97 220 2.0 5.0 0.00 0.00 0.00 33 1014.5
20260830190904 96 296 2.0 6.0 0.00 0.00 0.00 33 1014.5
20260830190403 96 30 3.0 8.0 0.00 0.00 0.00 34 1014.6
20260830185903 96 251 4.0 9.0 0.00 0.00 0.00 34 1014.8
20260830185403 95 33 4.0 9.0 0.00 0.00 0.00 35 1014.9
20260830184903 95 329 1.0 8.0 0.00 0.00 0.00 34 1014.9
20260830183903 94 245 1.0 7.0 0.00 0.00 0.00 35 1015.0
20260830182904 94 239 2.0 7.0 0.00 0.00 0.00 35 1015.1
20260830182403 94 223 1.0 6.0 0.00 0.00 0.00 36 1015.3
20260830181903 94 212 2.0 6.0 0.00 0.00 0.00 35 1015.4
20260830181404 93 84 1.0 3.0 0.00 0.00 0.00 37 1015.3
20260830180903 93 111 1.0 3.0 0.00 0.00 0.00 36 1015.4
20260830180403 93 155 1.0 3.0 0.00 0.00 0.00 36 1015.4
20260830175903 93 131 1.0 5.0 0.00 0.00 0.00 37 1015.6
20260830175403 93 38 1.0 5.0 0.00 0.00 0.00 37 1015.6
20260830174903 93 75 2.0 7.0 0.00 0.00 0.00 37 1015.5
20260830174404 93 72 2.0 7.0 0.00 0.00 0.00 36 1015.6
20260830173903 93 74 2.0 7.0 0.00 0.00 0.00 37 1015.6
20260830173403 93 110 2.0 7.0 0.00 0.00 0.00 37 1015.7
20260830172903 93 81 2.0 5.0 0.00 0.00 0.00 37 1015.8
20260830171903 93 197 2.0 8.0 0.00 0.00 0.00 37 1015.8
20260830171403 92 65 1.0 3.0 0.00 0.00 0.00 38 1015.8
20260830170904 92 122 2.0 3.0 0.00 0.00 0.00 38 1015.9
20260830170403 92 235 1.0 5.0 0.00 0.00 0.00 38 1015.9
20260830165903 92 120 2.0 5.0 0.00 0.00 0.00 38 1015.9
20260830165404 92 156 1.0 6.0 0.00 0.00 0.00 38 1016.0
20260830164904 92 131 2.0 6.0 0.00 0.00 0.00 38 1016.0
20260830163903 91 114 1.0 7.0 0.00 0.00 0.00 39 1016.0
20260830163403 91 89 2.0 7.0 0.00 0.00 0.00 39 1016.0
20260830162904 91 177 2.0 7.0 0.00 0.00 0.00 39 1016.1
20260830162403 91 88 2.0 7.0 0.00 0.00 0.00 39 1016.1
20260830161904 91 183 2.0 7.0 0.00 0.00 0.00 39 1016.1
20260830161403 91 144 3.0 7.0 0.00 0.00 0.00 39 1016.1
20260830160903 91 196 2.0 7.0 0.00 0.00 0.00 39 1016.1
20260830160403 91 165 2.0 7.0 0.00 0.00 0.00 40 1016.1
20260830155903 91 85 2.0 7.0 0.00 0.00 0.00 40 1016.2
20260830155403 91 114 2.0 7.0 0.00 0.00 0.00 40 1016.1
20260830154903 91 192 2.0 6.0 0.00 0.00 0.00 40 1016.1
20260830154404 90 110 2.0 6.0 0.00 0.00 0.00 40 1016.0
20260830152903 90 135 2.0 7.0 0.00 0.00 0.00 42 1016.0
20260830152403 89 171 1.0 6.0 0.00 0.00 0.00 43 1016.0
20260830151903 89 106 3.0 6.0 0.00 0.00 0.00 43 1015.9
20260830150904 88 110 1.0 5.0 0.00 0.00 0.00 45 1016.1
20260830150403 87 179 2.0 6.0 0.00 0.00 0.00 45 1016.0
20260830145903 87 194 1.0 6.0 0.00 0.00 0.00 45 1016.1
20260830145403 86 183 1.0 5.0 0.00 0.00 0.00 46 1016.0
20260830144904 86 99 1.0 3.0 0.00 0.00 0.00 46 1016.1
20260830144404 86 88 0.0 3.0 0.00 0.00 0.00 46 1016.1
20260830143903 86 105 1.0 3.0 0.00 0.00 0.00 46 1016.1
20260830143403 86 103 1.0 2.0 0.00 0.00 0.00 46 1016.1
20260830142904 86 110 0.0 7.0 0.00 0.00 0.00 46 1016.1
20260830141903 86 87 2.0 9.0 0.00 0.00 0.00 46 1016.3
20260830141403 86 103 2.0 8.0 0.00 0.00 0.00 46 1016.3
20260830140903 86 122 2.0 8.0 0.00 0.00 0.00 46 1016.3
20260830140403 86 125 2.0 8.0 0.00 0.00 0.00 46 1016.3
20260830135904 86 114 1.0 3.0 0.00 0.00 0.00 46 1016.2
20260830134903 86 119 1.0 7.0 0.00 0.00 0.00 45 1016.1
20260830134403 86 113 1.0 7.0 0.00 0.00 0.00 45 1016.1
20260830133404 86 100 2.0 6.0 0.00 0.00 0.00 45 1016.1
20260830132903 86 119 1.0 6.0 0.00 0.00 0.00 45 1016.1
20260830132403 86 112 1.0 6.0 0.00 0.00 0.00 45 1016.0
20260830131903 86 117 2.0 7.0 0.00 0.00 0.00 45 1016.0
20260830131403 86 103 1.0 7.0 0.00 0.00 0.00 45 1016.0
20260830130904 86 115 2.0 3.0 0.00 0.00 0.00 45 1015.9
20260830130403 86 118 1.0 3.0 0.00 0.00 0.00 45 1015.9
20260830125904 86 94 2.0 3.0 0.00 0.00 0.00 45 1015.8
20260830125403 86 123 1.0 3.0 0.00 0.00 0.00 44 1015.7
20260830124903 86 144 1.0 3.0 0.00 0.00 0.00 44 1015.7
20260830124403 86 181 1.0 3.0 0.00 0.00 0.00 44 1015.6
20260830123403 87 117 1.0 3.0 0.00 0.00 0.00 43 1015.6
20260830122903 87 81 1.0 7.0 0.00 0.00 0.00 43 1015.5
20260830122404 87 102 2.0 7.0 0.00 0.00 0.00 43 1015.4
20260830121903 87 123 3.0 7.0 0.00 0.00 0.00 43 1015.4
20260830121404 87 129 2.0 10.0 0.00 0.00 0.00 43 1015.3
20260830120904 87 108 3.0 10.0 0.00 0.00 0.00 42 1015.3
20260830120404 87 103 3.0 10.0 0.00 0.00 0.00 41 1015.3
20260830115904 88 104 3.0 9.0 0.00 0.00 0.00 40 1015.3
20260830115403 88 120 3.0 9.0 0.00 0.00 0.00 39 1015.3
20260830114903 88 104 5.0 9.0 0.00 0.00 0.00 39 1015.3
20260830114403 88 116 3.0 9.0 0.00 0.00 0.00 39 1015.2
20260830113903 88 102 3.0 7.0 0.00 0.00 0.00 39 1015.2
20260830112903 87 135 2.0 7.0 0.00 0.00 0.00 38 1014.9
20260830111403 87 106 5.0 12.0 0.00 0.00 0.00 40 1013.8
20260830110904 87 76 3.0 12.0 0.00 0.00 0.00 40 1013.8
20260830110403 87 111 5.0 10.0 0.00 0.00 0.00 40 1014.0
20260830105403 87 201 3.0 9.0 0.00 0.00 0.00 39 1014.3
20260830104904 87 127 2.0 9.0 0.00 0.00 0.00 39 1014.3
20260830103903 87 128 3.0 9.0 0.00 0.00 0.00 39 1014.2
20260830103403 87 121 2.0 8.0 0.00 0.00 0.00 40 1014.1
20260830102903 87 105 3.0 8.0 0.00 0.00 0.00 40 1014.0
20260830102403 87 110 2.0 7.0 0.00 0.00 0.00 41 1014.0
20260830101903 87 135 2.0 8.0 0.00 0.00 0.00 41 1014.0
20260830101403 87 122 2.0 8.0 0.00 0.00 0.00 41 1013.9
20260830100403 87 116 1.0 3.0 0.00 0.00 0.00 41 1013.9
20260830095903 87 116 1.0 3.0 0.00 0.00 0.00 42 1013.9
20260830095404 87 113 1.0 3.0 0.00 0.00 0.00 42 1013.9
20260830094904 87 109 0.0 3.0 0.00 0.00 0.00 43 1013.8
20260830094403 87 113 0.0 3.0 0.00 0.00 0.00 43 1013.8
20260830093904 87 71 0.0 1.0 0.00 0.00 0.00 44 1013.8
20260830093403 87 71 0.0 1.0 0.00 0.00 0.00 43 1013.7
20260830092903 87 71 0.0 1.0 0.00 0.00 0.00 43 1013.6
20260830092403 87 71 0.0 1.0 0.00 0.00 0.00 43 1013.6
20260830091904 87 71 0.0 1.0 0.00 0.00 0.00 43 1013.6
20260830090903 87 71 0.0 2.0 0.00 0.00 0.00 43 1013.5
20260830090403 87 71 1.0 2.0 0.00 0.00 0.00 42 1013.5
20260830085904 87 86 0.0 2.0 0.00 0.00 0.00 42 1013.5
20260830085404 87 86 0.0 3.0 0.00 0.00 0.00 41 1013.4